Regional Weather Roundup
Issued by NWS Newport/Morehead, NC

Current Version | Previous Version | Graphics & Text | Print | Product List | Glossary Off
Versions: 1 2 3 4 5 6 7 8 9 10 11 12 13 14 15 16 17 18 19 20 21 22 23 24 25 26 27 28 29 30 31 32 33 34 35 36 37 38 39 40 41 42 43 44 45 46 47 48 49 50

000
ASUS42 KMHX 302013
RWRMHX
WEATHER ROUNDUP FOR EASTERN NORTH CAROLINA
NATIONAL WEATHER SERVICE NEWPORT/MOREHEAD CITY NC
400 PM EDT THU JUL 30 2015

NOTE: "FAIR" INDICATES FEW OR NO CLOUDS BELOW 12,000 FEET
WITH NO SIGNIFICANT WEATHER AND/OR OBSTRUCTIONS TO VISIBILITY

NCZ015>017-031-032-045>047-102-103-302100-
NORTH COAST

CITY           SKY/WX    TMP DP  RH WIND       PRES   REMARKS
EDENTON          N/A     87  75  68 S9        29.89F
ELIZABETH CITY MOSUNNY   88  77  69 S9        29.89F HX 100
KITTY HAWK     PTCLDY    92  74  56 S7        29.89F HX 102
MANTEO         MOSUNNY   87  76  71 S16       29.90F

$$

NCZ045>047-081-094-103-104-302100-
CENTRAL COAST

CITY           SKY/WX    TMP DP  RH WIND       PRES   REMARKS
FRISCO         SUNNY     86  78  77 S10       29.92F
SWANQUARTER      N/A     90 N/A N/A S14G20    29.85F

$$

NCZ095-097-098-100-101-302100-
SOUTHERN COAST

CITY           SKY/WX    TMP DP  RH WIND       PRES   REMARKS
BEAUFORT       MOSUNNY   86  78  77 S10       29.90F
CEDAR ISLAND     N/A     90 N/A N/A SE14G21   29.94F
JACKSONVILLE   MOSUNNY   89  73  59 SE6       29.88F
PINEY ISLAND   PTCLDY   N/A N/A N/A MISG      29.90F
WILMINGTON     MOSUNNY   90  75  61 E7        29.87F HX 100


$$

NCZ011>013-027>030-043-044-078>080-089-090>093-098-302100-
COASTAL PLAIN

CITY           SKY/WX    TMP DP  RH WIND       PRES   REMARKS
AHOSKIE        MOSUNNY   89  71  55 CALM      29.88F
CLINTON        SUNNY     94  71  47 NE3       29.89F HX 101
ELIZABETHTOWN  MOSUNNY   93  68  44 CALM      29.87F
GOLDSBORO      SUNNY     94  70  45 NW3       29.86F HX 100
GREENVILLE     SUNNY     95  66  38 S7        29.90F
HAVELOCK       PTSUNNY   89  74  60 S8        29.90F
KENANSVILLE    SUNNY     92  60  34 CALM      29.89F
KINSTON        MOSUNNY   91  75  59 SE7       29.89F HX 102
NEW BERN       PTSUNNY   88  76  67 CALM      29.90F
RICHLANDS      MOSUNNY   91  73  55 E9        29.88F HX 100
ROCKY MOUNT    CLOUDY    94  70  45 CALM      29.88F HX 100
WASHINGTON     SUNNY     87  74  66 SE7       29.89F
WHITEVILLE     SUNNY     93  69  46 N3        29.87F

$$

AMZ130-135-150-152-154-156-158-170-250-252-270-ANZ085-086-088-633-658-670-302100-
MARINE OBSERVATIONS

STATION/POSITION TIME  TEMP    WIND        PRES    WAVE   SWELL
                       AIR SEA DIR/SP/G            HT/PER HT/PER
                 (UTC) (F)     (DEG/KT/KT) (MB)    (FT/S) (FT/S)
CHESAPEAKE LIGHT 2000   81     170/ 16/ 17 1012.4
64 E VA BEACH    1950   82 82  190/ 14/ 17 1012.4    3/ 9   2/ 9
DUCK             1900   82 68  170/  6/ 10 1012.2
2 E DUCK         1911      75                N/A     2/ 9   2/11
OREGON INLET     1900   83 84  190/ 14/ 16 1013.4
13E OREGON INLT  2000      82                N/A     4/ 5
HATTERAS CG      1900   85 83  170/ 11/ 16 1013.4
DIAMOND BUOY     1950   84 86  170/ 17/ 21 1013.0    4/ 5   2/ 8
CAPE LOOKOUT     2000   83     160/ 12/ 14 1012.2
BEAUFORT LAB     1900   84 83  180/  9/ 10 1012.4
30 SE NEW RVR IN NOT AVBL
27 SE WRIGHTSVLE 1900   79 84   90/  6/  6   N/A
5 SE WRIGHTSVLE  1908   82 84  120/  4/  6 1012.5
225 S CAPE HAT   1950   81 81  190/ 21/ 27 1013.2    9/ 8
41 SE CHARLESTON 1950   82 85   10/  6/  8 1011.8    3/ 8   2/ 8

$$



USA.gov is the U.S. government's official web portal to all federal, state and local government web resources and services.